Overview Statistics Trail Chart Weather Telemetry Raw packets
 

This is the latest recevied weather packets stored in our database for station/object K7FLA. If no packets are shown the sender has not sent any weather packets the latest 10 day(s).

<< 73 74 75 76 77 78 79 >>
Time Temp. Humidity Pressure Rain* Wind** Luminosity Snow
1788142635 27.22° C 39% 1093.6 hPa 0 mm - 3 W/m² -
1788142330 27.78° C 39% 1093.4 hPa 0 mm - 6 W/m² -
1788142026 27.78° C 39% 1093.4 hPa 0 mm - 9 W/m² -
1788141725 27.78° C 39% 1093.4 hPa 0 mm - 12 W/m² -
1788141420 28.33° C 38% 1093.3 hPa 0 mm - 16 W/m² -
1788141115 28.33° C 38% 1093.2 hPa 0 mm - 19 W/m² -
1788140810 28.89° C 38% 1093.5 hPa 0 mm - 22 W/m² -
1788140505 28.89° C 37% 1093.2 hPa 0 mm - 26 W/m² -
1788140202 28.89° C 37% 1093.2 hPa 0 mm - 29 W/m² -
1788139901 28.89° C 36% 1093.5 hPa 0 mm - 32 W/m² -
1788139596 29.44° C 36% 1093.4 hPa 0 mm - 35 W/m² -
1788139291 29.44° C 36% 1093.3 hPa 0 mm - 38 W/m² -
1788138990 29.44° C 35% 1093.5 hPa 0 mm - 43 W/m² -
1788138686 30° C 35% 1093.5 hPa 0 mm - 54 W/m² -
1788138382 30° C 34% 1093.5 hPa 0 mm - 66 W/m² -
1788138077 30.56° C 34% 1093.5 hPa 0 mm - 75 W/m² -
1788137777 30.56° C 33% 1093.2 hPa 0 mm - 88 W/m² -
1788137472 30.56° C 33% 1093.4 hPa 0 mm - 93 W/m² -
1788137167 31.11° C 33% 1093.4 hPa 0 mm - 108 W/m² -
1788136863 31.11° C 33% 1093.3 hPa 0 mm - 118 W/m² -
1788136559 31.67° C 33% 1093.2 hPa 0 mm - 127 W/m² -
1788136255 31.67° C 32% 1093.2 hPa 0 mm - 133 W/m² -
1788135953 31.67° C 32% 1093.3 hPa 0 mm - 148 W/m² -
1788135648 31.67° C 32% 1093.2 hPa 0 mm - 155 W/m² -
1788135344 31.67° C 32% 1093.3 hPa 0 mm - 175 W/m² -

* Rain latest hour (hover to see other rain measurements)
** Current wind speed in m/s (hover to see current wind gust speed)